RH
27 27 28 37 44 55 65 45 18 18 15 11 23 34 35 30 19 11 10 14 19 21 22 23 20 18 15 13 14 15 16 16 17 18 18 19 20 21 22 23 24 24 24 24 23 24 24 23 23 23 23 23 23 23 22 21 19 18 19 20 21 22 21 20 20 19 20 19 16 19 23 18 17 19 16 15 16 16 15 14 10 8 7 8 8
29 30 27 34 47 54 56 43 27 25 18 16 41 63 62 54 40 22 10 11 18 22 22 21 19 18 16 14 14 15 16 17 17 18 18 20 20 21 22 24 25 26 26 25 24 24 23 23 23 23 24 24 24 24 23 22 23 23 24 26 25 23 20 17 15 13 15 18 17 25 36 29 17 15 13 12 14 15 16 17 15 12 8 7 8
20 22 19 30 50 52 45 42 35 29 22 26 59 84 85 79 63 34 14 10 16 21 17 13 14 14 14 14 14 16 18 17 17 18 18 19 20 21 23 25 27 28 28 27 26 25 24 24 23 22 24 25 24 23 23 26 29 29 30 28 23 18 15 12 12 11 11 15 18 28 44 43 30 20 15 12 13 13 13 14 15 15 13 9 7
22 24 24 34 50 48 38 35 32 30 29 36 56 71 79 86 69 36 15 9 16 25 20 11 11 13 13 14 15 17 19 18 17 18 18 19 21 24 26 28 29 30 29 28 27 26 25 23 21 22 24 25 25 25 26 29 31 32 32 28 22 21 20 17 16 14 11 13 19 25 35 41 38 34 33 30 26 23 20 16 12 11 13 13 10
26 28 32 35 40 38 32 26 24 28 33 37 41 49 68 83 64 33 20 14 17 25 23 13 12 14 14 15 17 18 19 18 17 18 19 21 24 26 28 30 31 30 28 27 27 26 24 22 20 21 23 24 24 25 27 29 30 32 35 33 32 32 28 22 17 15 14 19 27 32 34 34 34 35 39 39 34 32 32 29 22 13 8 9 10
22 23 29 30 27 24 23 21 18 23 33 39 43 47 67 82 66 43 32 22 18 24 22 16 15 15 15 17 18 19 18 18 20 20 22 26 28 29 30 31 30 29 28 27 26 24 21 19 20 21 23 24 25 25 26 26 27 32 37 40 43 39 27 19 18 20 26 33 41 49 47 40 35 32 32 31 28 27 29 31 31 25 16 12 10
18 19 21 22 21 21 25 25 22 23 29 40 49 49 60 81 75 54 41 30 27 30 26 19 18 17 17 19 19 19 20 21 22 22 25 28 29 29 32 31 29 28 27 25 23 20 17 17 20 22 24 26 25 24 23 22 24 30 36 40 44 34 21 21 27 32 41 48 54 60 56 45 38 32 30 30 28 28 27 26 27 28 26 21 16
17 17 17 18 19 21 25 23 22 24 23 33 48 46 51 73 71 52 41 34 29 32 29 23 22 21 20 20 20 21 21 23 24 25 27 27 27 30 32 31 28 25 22 20 19 16 14 15 19 22 25 27 26 24 22 20 21 27 32 35 34 25 21 29 36 40 48 53 56 59 55 45 38 33 31 30 29 29 28 25 24 24 23 20 16
18 15 13 14 13 16 28 32 25 22 20 29 45 47 50 61 56 46 45 38 32 34 31 27 28 25 20 21 22 21 22 25 26 25 26 30 35 38 36 30 26 22 17 16 15 13 12 14 17 22 25 27 25 24 21 18 17 20 24 25 22 21 28 37 42 47 51 51 53 55 50 42 36 30 29 28 25 22 21 21 20 19 18 14 12
23 18 13 13 10 13 32 40 25 17 27 39 49 57 65 64 53 50 52 42 37 41 35 32 34 27 21 21 21 21 24 25 25 29 41 49 47 42 36 31 27 21 16 13 12 11 11 13 16 21 25 26 25 24 21 16 14 13 14 15 16 26 39 45 46 50 52 52 54 51 42 36 32 28 25 24 22 19 18 19 19 17 14 10 10
28 21 14 15 19 22 32 38 31 27 37 46 54 68 80 70 54 53 55 44 41 45 40 38 36 27 22 22 21 24 26 24 27 38 50 49 38 32 34 34 29 20 14 12 10 8 9 10 14 19 22 24 24 23 20 16 13 11 13 17 23 37 49 50 48 49 49 49 48 42 34 30 29 28 27 25 24 23 22 23 25 21 14 10 10
29 22 19 24 38 49 52 53 53 53 52 52 60 75 89 83 66 62 61 49 42 44 44 41 33 24 22 23 23 27 29 28 30 37 41 38 32 31 32 30 25 17 13 11 8 7 7 8 11 16 19 21 21 21 20 16 12 12 18 30 43 53 54 50 49 44 38 37 37 35 32 29 29 33 34 31 28 28 30 33 37 32 20 14 14
24 20 21 24 40 63 71 66 65 72 74 70 70 74 80 80 73 71 66 50 39 41 42 37 29 23 23 26 27 30 33 32 33 39 43 42 37 32 27 23 19 14 12 10 8 7 5 5 8 12 17 19 19 20 19 15 13 12 23 47 65 64 54 52 52 40 30 31 31 29 30 30 32 34 33 32 32 34 40 43 46 45 32 22 22
20 16 13 12 20 37 53 58 62 71 77 77 78 77 74 73 76 80 73 54 41 40 40 35 29 25 26 29 30 32 35 36 39 46 49 43 36 29 23 19 16 12 11 10 9 7 6 6 7 10 14 17 18 20 18 15 14 15 33 61 74 64 55 55 52 37 27 28 27 27 31 31 29 29 32 38 41 43 48 47 49 55 48 36 31
19 13 9 8 6 11 31 56 70 75 76 80 89 91 86 85 91 94 84 66 51 45 42 38 32 28 31 35 35 37 40 44 48 54 54 45 35 27 20 16 13 11 11 10 9 8 8 8 8 9 12 15 16 18 17 15 13 23 50 73 71 59 55 56 51 38 26 24 26 28 29 26 27 36 47 53 53 53 55 53 52 59 57 49 43
20 15 12 10 10 24 50 70 79 83 82 85 94 98 95 94 95 95 88 75 60 50 46 42 35 31 35 40 43 46 53 57 59 59 56 46 33 23 18 14 12 11 11 10 10 10 10 10 9 9 11 14 15 17 17 13 15 34 63 74 61 53 55 55 49 37 26 27 29 27 26 32 43 57 67 68 64 60 59 58 58 61 60 57 51
20 16 12 9 19 48 75 83 86 92 91 88 94 99 97 94 91 90 88 79 64 54 49 44 38 37 40 48 59 68 70 68 61 54 47 38 27 20 16 13 12 13 14 12 12 13 12 11 10 9 11 13 15 17 15 13 22 48 70 67 52 49 54 53 45 34 29 30 29 27 34 51 67 78 84 83 76 66 59 57 58 58 59 59 54
24 17 14 17 31 58 78 82 87 95 94 93 98 99 93 91 92 92 89 77 62 53 52 47 41 41 45 53 65 74 73 65 54 42 34 28 22 17 14 13 14 15 15 15 15 15 14 12 10 11 13 14 16 17 14 17 36 61 68 57 47 46 49 46 39 34 32 29 26 34 53 72 85 93 96 94 85 74 66 60 56 55 57 60 57
24 19 18 20 32 56 72 72 76 91 98 99 99 94 88 89 94 98 93 79 64 57 55 50 43 45 55 65 71 70 64 57 46 34 28 23 18 15 13 13 15 16 16 17 17 17 17 14 12 14 14 15 17 15 14 26 50 64 59 48 44 45 44 40 36 34 30 25 31 50 69 84 95 99 100 97 88 82 81 77 70 63 59 59 58
23 23 20 14 25 56 74 70 71 86 99 100 95 87 84 88 94 97 93 83 75 67 58 49 47 55 69 79 77 64 51 43 35 26 23 19 14 13 13 14 16 18 18 19 20 20 17 14 14 15 14 16 17 14 19 39 58 58 48 42 43 43 41 38 36 32 24 24 41 62 73 85 97 100 100 97 89 89 94 92 85 79 70 63 58
22 19 17 18 31 51 59 61 73 88 96 95 87 81 85 90 92 89 85 80 77 69 55 50 60 73 80 79 68 53 40 33 27 22 18 15 12 12 13 15 18 19 20 21 21 18 14 13 14 15 16 17 16 16 31 52 59 50 44 43 44 42 40 38 35 28 21 29 50 63 69 82 96 100 100 98 93 94 98 95 92 95 89 76 60
21 25 34 44 49 46 45 57 77 88 85 74 68 72 84 91 90 84 80 78 79 75 66 63 70 77 75 67 54 43 35 27 21 18 14 12 11 11 13 18 22 22 22 22 19 13 11 12 13 15 17 17 15 22 44 60 57 48 45 47 47 44 40 38 33 23 22 35 51 58 65 79 93 99 101 100 99 99 100 96 95 99 96 84 67
24 35 51 64 65 62 65 73 76 73 62 53 61 80 92 95 94 92 90 89 91 91 85 76 70 66 60 53 45 36 29 22 18 15 12 11 11 9 11 19 23 23 22 21 16 11 9 11 14 17 19 16 15 30 53 60 54 50 50 49 49 45 41 39 31 21 24 38 47 54 63 74 87 98 101 99 98 100 100 100 97 95 91 85 76
17 21 38 58 68 76 88 91 83 76 69 65 79 97 99 96 97 96 93 90 87 87 84 75 68 64 57 49 41 32 25 20 15 11 10 11 9 8 11 19 23 23 22 18 13 10 11 14 17 20 20 16 17 37 57 59 52 52 52 49 47 43 40 39 29 20 25 37 43 50 62 70 79 94 102 98 93 91 94 98 99 93 87 83 78
16 18 26 39 53 70 89 94 89 87 84 82 90 97 95 95 99 97 92 89 84 81 79 73 67 64 55 44 37 30 22 16 12 11 11 10 8 8 12 19 23 24 22 16 12 12 15 18 20 21 21 14 17 40 59 58 51 52 51 48 44 41 39 36 26 19 25 36 40 47 58 65 73 89 101 101 93 85 85 94 100 95 87 79 71
20 23 22 27 42 62 78 82 81 83 86 86 90 91 87 88 96 100 99 96 90 86 81 72 65 58 48 40 34 26 19 15 13 12 11 9 8 11 17 22 25 25 19 14 14 17 19 21 21 22 19 12 16 41 62 61 54 54 53 47 41 37 35 30 22 19 25 33 38 45 52 59 68 82 97 102 98 89 83 88 98 99 91 78 63
20 20 19 22 35 50 58 61 67 78 88 91 89 86 84 87 96 102 100 96 94 91 82 70 59 49 40 35 29 22 18 16 15 13 11 9 10 16 22 25 25 21 16 15 19 21 21 22 22 19 16 11 13 36 62 67 61 57 55 48 39 35 32 26 19 19 25 30 36 42 48 54 61 73 89 100 102 96 86 83 93 100 91 75 64
18 21 27 29 35 41 42 47 65 84 97 97 87 81 84 90 94 97 95 92 94 95 83 67 54 45 37 32 27 23 20 17 15 12 10 11 16 22 25 24 20 16 15 18 22 23 22 22 21 17 14 12 12 28 54 67 66 62 56 47 39 34 30 23 18 19 24 29 34 38 44 50 55 65 80 93 101 100 91 83 89 95 85 71 71
19 31 46 48 44 36 28 40 72 95 97 94 87 81 82 86 91 97 95 90 90 88 77 65 55 46 38 32 28 24 21 17 14 12 12 16 22 26 27 24 18 15 18 22 25 25 23 22 20 16 13 15 19 32 52 66 69 65 57 48 41 36 29 22 19 21 24 28 32 36 40 46 51 57 69 83 96 103 97 84 81 88 89 82 82
30 44 58 52 40 31 25 40 74 95 95 92 90 84 78 79 84 87 83 81 84 83 74 64 54 43 36 33 29 24 20 17 15 14 15 21 25 28 30 28 20 17 22 27 28 26 24 23 20 16 15 20 28 41 57 69 71 67 60 51 44 40 34 25 20 21 25 28 30 34 38 41 45 52 60 72 87 100 101 90 78 77 85 87 85
38 46 52 46 39 38 34 36 54 71 76 76 71 63 56 54 55 58 62 72 82 81 71 61 50 42 38 35 29 23 20 19 18 17 18 23 27 31 33 30 23 21 27 31 30 27 26 24 22 18 19 25 30 38 54 70 74 69 64 59 51 46 40 31 23 21 24 28 31 32 35 37 41 47 54 63 76 91 101 99 88 81 83 85 88
42 44 45 43 43 44 41 37 37 42 44 43 38 33 30 35 47 60 72 81 83 78 70 60 51 46 43 36 28 23 22 23 23 21 20 22 28 33 35 30 24 26 32 35 32 29 28 26 25 22 22 27 31 32 43 63 73 72 69 66 61 55 47 38 29 23 22 27 31 32 33 35 38 43 49 56 67 81 95 101 98 95 92 85 84
45 46 46 47 47 44 40 35 30 26 25 24 22 25 39 60 80 88 90 89 86 78 68 60 55 52 46 35 27 24 25 29 31 28 24 24 30 36 36 29 27 32 38 38 34 31 30 29 29 27 25 28 32 32 36 50 66 73 73 70 68 65 58 48 38 28 23 25 29 31 32 34 36 39 45 52 60 70 85 98 101 100 99 90 78
45 46 47 47 44 38 33 29 25 22 21 21 26 42 64 84 95 93 88 84 78 67 59 56 58 56 45 31 23 22 28 36 39 35 30 30 36 42 39 32 33 40 42 39 35 33 32 32 33 33 32 33 36 37 36 41 51 63 71 73 72 70 68 61 50 36 28 26 28 30 31 32 34 38 42 49 56 62 73 90 99 99 101 97 79
45 44 41 37 32 28 26 24 22 22 22 27 41 56 61 60 61 63 63 60 57 56 57 58 55 48 35 23 19 23 34 45 48 44 40 41 46 49 44 39 42 46 44 40 38 35 34 35 36 36 35 37 40 42 43 43 44 48 58 69 75 76 76 72 61 47 36 31 30 31 32 31 34 38 41 45 53 57 63 78 93 98 101 100 89
38 37 33 28 24 22 21 21 20 18 17 19 26 34 35 34 37 42 48 54 60 62 57 46 37 30 24 20 19 26 41 54 56 52 51 54 56 55 51 48 50 49 44 42 40 36 35 36 37 36 36 39 43 48 50 49 46 45 49 61 73 80 81 78 68 55 44 38 35 34 35 35 36 40 42 43 47 53 57 66 81 94 99 100 98
32 30 27 24 22 20 19 17 15 15 19 24 27 30 37 45 50 54 61 67 65 53 37 26 23 21 19 19 20 27 46 62 63 57 58 63 63 59 56 54 52 49 46 43 41 39 38 39 40 40 39 40 46 53 55 54 51 48 48 55 67 77 81 79 71 59 50 45 41 38 38 39 40 41 43 41 42 46 51 57 69 84 94 98 99
24 22 21 20 18 16 14 15 21 31 44 50 44 38 42 54 64 68 65 58 47 36 28 23 20 17 17 19 19 26 48 67 68 61 64 68 66 61 58 55 52 50 48 45 43 43 44 45 46 45 43 43 47 53 57 58 56 53 52 56 63 70 74 74 71 63 54 48 45 42 41 41 42 42 42 40 38 40 44 50 59 71 82 91 97
17 19 19 16 13 14 18 26 38 46 46 40 33 35 45 56 59 52 37 26 23 26 27 26 23 19 20 21 20 29 52 70 68 63 69 73 69 63 59 55 52 50 48 46 45 47 49 51 50 48 46 44 45 48 53 57 58 57 58 61 65 67 67 66 65 62 55 48 44 42 41 40 40 40 39 36 35 35 37 42 49 59 69 79 87
19 22 21 16 16 23 33 39 43 40 31 26 33 44 47 41 28 16 10 13 18 19 21 27 29 26 23 24 31 48 68 72 64 64 74 78 72 65 60 55 53 50 47 45 45 47 51 52 50 48 46 43 42 44 47 50 54 57 61 64 67 69 68 65 61 57 53 48 43 40 38 37 36 35 35 33 31 31 32 36 40 47 56 65 73
18 17 17 18 24 38 53 55 47 35 26 27 34 37 28 17 13 18 30 41 40 31 29 36 39 33 32 38 49 61 67 62 61 72 82 79 71 65 60 56 53 51 47 44 44 46 49 49 47 46 45 42 40 40 41 42 45 48 52 57 63 67 69 68 64 59 53 48 43 39 37 36 35 33 32 31 29 28 28 31 34 38 43 51 59
32 27 26 30 38 52 61 55 40 28 21 20 19 16 12 15 25 38 49 57 56 52 52 51 41 32 33 40 46 51 54 61 73 85 84 75 68 64 60 57 54 50 47 45 45 45 45 45 43 43 43 41 38 37 37 37 37 37 38 42 47 53 58 61 62 60 56 52 48 43 39 37 35 34 32 30 29 27 27 28 29 32 34 39 46
50 47 43 43 47 47 41 31 24 21 18 14 12 19 34 50 57 55 53 54 56 59 59 50 38 35 41 48 54 60 68 78 86 86 77 70 67 64 60 58 55 51 49 48 46 45 43 41 41 42 42 40 38 35 34 34 33 32 31 31 32 34 38 42 45 46 46 46 45 43 40 35 33 32 32 30 28 27 26 26 26 28 30 32 35
54 51 47 44 41 34 25 20 19 16 11 10 17 33 54 66 64 55 51 52 52 52 51 49 50 58 67 72 76 79 80 79 78 74 70 68 66 63 61 59 55 52 51 50 47 45 42 40 41 42 42 40 38 35 33 32 31 30 29 28 27 26 27 27 28 29 29 30 32 34 34 32 29 27 27 28 27 25 25 25 25 25 26 27 28
50 50 45 37 29 22 16 13 11 9 11 19 29 37 44 48 50 50 53 54 54 55 58 62 67 71 74 75 76 75 73 69 67 65 64 64 64 64 64 61 57 55 53 50 46 44 41 40 41 42 42 40 38 35 32 31 30 29 28 27 26 26 24 24 24 23 22 22 23 23 24 25 24 23 23 23 23 23 22 22 23 23 23 23 25
48 46 35 22 15 13 12 13 15 18 23 28 31 33 36 42 48 53 54 54 56 59 62 65 66 65 65 65 65 63 62 60 59 59 60 62 64 66 66 63 59 56 52 48 45 43 41 41 42 42 41 40 37 35 33 32 30 30 29 28 27 26 25 23 23 22 21 21 20 19 19 20 19 19 19 19 19 19 19 20 20 21 21 21 21
38 29 18 12 15 19 21 24 27 28 28 28 29 32 36 40 43 44 45 47 50 52 53 53 52 50 48 48 48 49 48 48 50 54 59 62 64 66 64 61 57 53 48 45 43 41 40 41 42 40 39 38 36 34 34 33 32 31 31 30 29 28 27 25 24 23 22 22 21 20 19 18 17 16 16 16 16 16 16 16 17 17 18 18 19
21 17 18 23 28 30 30 30 30 28 27 26 26 26 28 28 29 29 29 31 33 34 35 36 35 34 35 37 38 39 40 41 45 51 57 59 60 61 60 55 51 47 44 42 41 40 40 40 38 36 35 34 33 32 32 32 32 33 32 32 32 31 29 28 27 25 24 23 22 21 19 18 17 16 15 14 14 13 13 13 13 13 14 14 15
23 27 30 32 31 28 27 25 23 20 19 17 16 15 16 16 15 16 17 19 22 24 26 27 29 29 31 31 31 33 34 34 37 43 50 53 54 54 52 48 44 42 41 41 40 38 36 34 33 32 32 31 31 30 30 29 29 29 29 29 29 28 28 27 26 25 24 23 21 20 19 17 16 15 14 13 12 11 10 11 11 10 11 11 11
35 35 30 27 24 22 19 16 15 14 13 13 12 12 11 11 12 13 15 18 21 23 24 26 28 28 28 29 29 30 30 29 30 34 39 42 44 44 43 42 41 41 41 40 36 33 31 31 31 31 29 27 24 22 20 19 19 19 19 19 19 19 19 19 18 18 19 18 18 17 16 15 13 13 12 11 11 10 9 9 9 8 8 9 9
33 26 23 22 20 18 16 15 14 13 12 11 10 9 9 10 11 12 14 17 20 23 25 27 29 29 30 30 30 29 29 29 29 29 31 33 36 39 41 41 41 40 37 34 31 30 31 31 29 25 21 18 16 14 13 14 14 13 13 14 13 13 13 14 13 13 13 13 13 13 12 11 10 10 10 9 9 8 8 8 7 7 7 7 7
Wind_Speed
23 23 25 26 27 28 30 33 32 31 31 29 26 25 27 28 27 27 27 27 27 29 29 29 28 28 28 27 28 29 30 31 32 33 35 36 37 38 40 41 41 41 41 41 42 43 44 45 45 45 45 45 46 47 47 47 47 46 45 43 41 40 41 41 41 40 40 41 41 41 41 39 38 38 38 39 41 43 42 42 44 48 51 54 56
23 24 26 27 27 28 31 33 33 33 33 31 27 25 26 28 28 29 29 28 28 29 29 29 29 29 29 30 30 31 31 31 33 35 36 37 38 40 42 42 41 40 40 41 43 45 46 46 46 47 47 47 47 47 47 47 46 45 43 42 41 42 43 43 43 43 40 38 38 38 37 35 34 36 36 37 38 40 41 42 44 46 49 53 56
24 25 27 28 28 30 32 34 34 34 34 31 29 29 30 31 30 30 31 30 29 29 29 29 29 29 30 32 32 32 32 33 34 36 37 38 39 41 43 42 41 41 41 42 44 46 46 46 47 48 47 46 46 46 46 45 43 42 42 42 41 42 43 43 43 44 42 37 36 36 35 34 33 35 36 36 36 37 39 40 42 44 46 50 54
26 28 29 30 30 32 35 36 36 35 33 31 32 33 33 33 32 32 33 32 31 30 29 29 29 30 31 33 33 33 33 34 36 37 39 39 40 42 42 43 42 42 42 44 45 46 46 46 47 47 46 44 44 44 44 43 43 43 43 42 43 43 44 46 46 46 45 39 35 36 38 39 37 36 37 37 36 37 38 39 41 43 44 47 51
29 30 31 32 33 35 37 38 38 37 33 31 34 35 34 33 33 33 34 33 31 31 30 29 29 30 32 33 34 34 34 36 38 39 39 40 40 41 42 42 43 43 44 45 46 46 47 48 47 46 45 44 44 43 42 43 44 45 45 44 45 47 48 49 49 47 45 40 35 34 36 39 38 37 39 39 38 38 39 40 41 43 43 44 47
30 31 33 35 36 37 39 40 39 38 34 33 35 36 35 34 33 34 35 34 32 31 30 29 29 30 32 33 34 35 36 37 38 39 40 39 39 40 41 42 43 43 44 45 46 47 48 48 46 45 44 43 43 42 42 43 44 45 46 47 48 49 49 49 47 46 42 38 35 32 34 36 37 38 40 41 40 40 41 41 41 43 45 45 46
32 33 34 36 38 39 40 41 40 38 37 35 36 37 37 35 33 34 37 37 35 32 30 29 31 32 33 34 34 36 37 38 39 39 39 38 39 41 41 42 43 43 44 46 47 48 48 46 44 43 43 42 42 43 42 43 44 45 47 48 49 49 49 48 45 43 41 38 36 34 34 35 37 38 39 41 41 41 43 44 43 44 48 49 48
34 34 35 37 39 40 42 43 43 40 38 38 38 38 37 35 34 36 38 37 35 33 31 31 32 33 34 35 36 37 38 39 39 38 38 40 42 42 40 41 42 43 45 46 48 47 46 45 43 42 42 42 43 43 43 43 44 45 47 49 50 49 48 46 44 42 41 39 38 37 36 36 37 38 39 40 41 41 43 45 45 45 49 51 50
36 37 38 39 41 41 42 44 45 43 40 38 38 40 38 35 34 35 35 35 34 33 32 32 33 35 35 36 37 38 39 39 37 38 41 42 39 38 39 41 43 45 47 47 47 46 45 44 43 42 41 42 43 43 43 44 44 45 46 48 49 49 47 45 43 42 41 40 39 39 38 38 38 38 39 41 42 42 43 45 46 47 49 51 50
39 39 39 41 43 42 42 45 46 43 40 39 40 41 39 35 34 35 34 33 33 32 32 33 35 36 37 37 37 38 38 37 37 38 38 36 34 38 43 45 45 47 48 47 45 44 43 42 42 42 41 42 43 43 43 43 44 45 46 47 48 48 45 43 42 42 41 41 40 39 40 40 39 40 40 42 43 43 43 45 46 47 49 52 50
41 40 41 43 43 41 43 47 46 41 39 40 40 40 38 35 34 34 33 32 31 31 32 34 35 36 38 38 38 37 37 36 36 36 35 35 40 45 47 45 46 48 48 46 44 43 42 42 42 41 42 42 42 43 43 43 44 45 45 47 47 46 44 41 41 41 40 39 39 40 41 41 41 42 43 44 44 44 44 45 47 47 49 52 50
42 41 42 42 42 43 46 47 45 42 42 42 40 38 36 37 36 34 32 30 31 32 33 33 34 36 38 39 38 37 36 37 36 37 38 42 45 46 45 46 48 48 47 46 44 43 42 42 42 41 41 42 42 43 43 44 45 45 45 46 46 44 41 40 40 40 39 39 39 40 42 42 42 44 46 47 46 44 42 43 46 49 49 50 48
43 41 41 41 42 45 46 45 44 45 44 44 45 42 39 39 40 37 33 30 31 33 33 33 34 36 39 40 38 37 38 39 38 39 41 44 46 47 47 48 48 48 47 47 45 44 43 43 42 42 41 41 42 42 43 44 45 45 45 45 42 40 39 39 39 39 39 39 40 41 43 44 44 45 49 51 49 44 40 40 43 46 48 49 46
42 42 41 42 43 43 43 44 45 46 46 47 48 44 41 41 40 37 33 31 32 33 33 33 34 36 39 39 38 38 40 41 41 41 43 46 48 49 49 49 48 48 48 47 46 45 45 44 43 42 41 41 41 42 42 43 44 44 44 43 39 37 37 38 39 39 39 40 41 41 43 44 45 47 50 52 51 44 38 37 39 41 45 47 43
43 44 44 44 43 43 43 44 45 47 47 47 48 47 43 39 35 34 33 32 32 33 33 34 35 37 38 37 37 39 41 42 42 43 45 47 49 50 49 49 48 48 47 47 46 46 45 44 42 41 40 41 41 41 42 43 44 43 42 38 35 34 36 37 38 39 39 40 41 42 43 45 46 48 50 53 53 45 36 35 37 37 41 44 40
44 45 45 44 42 44 46 44 44 46 47 49 53 50 40 33 31 33 35 34 34 34 34 34 35 37 37 37 39 41 42 41 42 44 46 49 50 50 49 48 48 47 47 47 46 45 44 42 41 40 39 39 40 41 43 44 43 41 37 34 32 33 35 36 38 38 38 39 40 41 43 44 46 49 51 52 52 44 33 33 35 35 37 41 39
44 44 44 42 42 47 49 46 46 47 46 49 51 43 32 30 31 33 35 36 35 34 33 34 36 37 36 37 38 39 40 40 42 45 48 49 50 49 48 48 48 47 47 47 46 45 43 42 41 40 39 39 40 41 43 43 42 38 34 31 31 31 34 36 36 37 37 37 38 39 41 43 46 48 49 50 50 44 35 33 34 33 33 37 37
45 45 44 43 45 49 48 45 46 46 42 40 38 31 28 31 34 35 36 36 34 33 33 35 36 36 36 37 37 39 42 44 46 47 48 49 49 48 48 48 48 47 47 46 45 43 43 42 42 40 39 40 40 41 42 42 39 35 32 30 30 31 33 35 35 35 35 36 37 38 39 43 46 47 47 48 48 45 39 36 36 31 28 32 35
46 47 47 46 46 46 41 38 41 41 36 32 30 30 32 37 39 38 35 33 32 32 33 35 35 35 36 39 39 41 44 46 47 48 49 48 48 49 49 48 47 47 46 45 43 42 42 42 42 40 40 40 40 41 41 40 36 33 30 29 29 30 32 34 33 33 33 34 35 36 38 42 45 46 45 46 46 44 40 38 37 31 25 27 32
47 48 49 47 43 40 36 34 36 38 35 30 31 33 34 36 34 31 31 33 32 32 33 34 34 34 36 39 40 43 45 47 48 49 49 48 49 49 48 48 47 46 45 43 42 41 42 42 41 40 39 40 40 40 39 37 34 30 28 28 29 30 31 31 32 32 32 31 31 34 37 40 42 43 43 44 44 41 38 35 32 29 24 23 29
46 47 49 47 41 37 35 34 36 37 34 31 34 38 37 35 33 35 39 41 38 35 34 35 35 35 36 39 43 46 47 48 48 48 48 49 49 48 48 47 47 46 43 42 41 41 41 41 40 39 39 39 39 38 36 34 31 28 27 27 29 30 29 29 30 31 30 29 29 32 36 38 41 41 40 42 42 39 34 30 26 25 23 21 25
43 44 45 42 37 35 36 37 37 38 37 39 44 46 44 41 41 43 44 41 37 35 34 33 35 37 39 42 46 47 47 47 48 48 48 48 48 48 48 47 46 44 42 41 40 40 40 40 39 38 38 38 38 36 34 31 28 26 27 28 29 30 29 28 29 30 28 27 28 32 35 37 40 39 37 39 40 36 31 27 23 21 19 18 21
39 39 37 34 33 34 35 36 37 37 39 42 44 43 41 40 39 37 34 31 32 33 32 32 35 39 42 45 45 45 45 46 47 47 47 47 48 48 48 47 45 43 41 40 40 40 39 38 37 37 37 36 35 33 31 29 27 26 27 28 29 30 29 28 29 29 26 26 28 31 33 36 39 38 36 37 37 30 26 26 23 18 15 15 19
37 35 31 31 35 35 34 34 35 37 39 39 36 34 34 33 33 32 32 32 34 34 33 35 39 42 43 44 43 44 45 46 46 46 47 48 49 49 48 46 44 41 40 39 39 38 37 36 36 35 35 34 33 31 29 28 26 26 26 27 28 29 29 29 29 27 25 25 28 31 32 35 38 38 36 36 34 25 21 23 20 15 15 16 19
34 32 31 32 34 34 34 36 38 42 43 39 34 33 32 33 37 39 39 36 34 33 35 40 43 44 43 43 44 45 45 45 46 47 49 50 51 49 47 45 42 40 38 38 37 36 35 35 35 34 34 33 31 29 28 27 26 25 26 27 28 28 28 29 28 26 24 25 27 30 31 34 37 38 35 33 33 26 19 16 15 14 16 17 19
32 31 31 31 31 32 35 38 42 46 48 46 42 39 40 45 47 44 40 35 33 34 39 43 43 43 43 43 44 45 45 46 48 50 51 51 49 47 44 42 40 37 36 36 35 34 34 34 34 33 32 31 29 28 28 27 26 26 25 26 27 27 28 28 27 25 24 24 27 29 31 33 35 36 34 31 32 29 20 15 15 15 16 17 19
33 32 33 33 32 33 36 40 44 48 51 51 48 46 48 51 48 42 36 34 35 40 45 44 41 41 42 43 45 45 47 49 50 51 51 49 46 43 41 39 37 36 35 34 33 32 33 33 32 31 30 29 28 27 27 26 26 25 25 25 26 26 27 27 26 24 23 24 26 27 30 31 33 35 36 32 30 29 24 17 13 12 12 14 18
34 34 34 33 33 35 39 44 48 51 54 54 51 49 48 47 43 40 37 36 41 52 54 47 44 44 44 46 48 48 50 51 51 50 48 45 43 40 38 36 35 35 34 33 32 32 32 32 31 29 28 28 27 27 26 25 25 25 25 24 25 25 26 26 25 24 23 24 25 26 28 30 32 34 36 34 30 27 25 19 13 10 11 13 16
35 35 33 30 32 36 40 43 45 45 45 44 43 43 42 41 41 42 41 44 52 60 57 51 48 47 47 49 50 50 51 51 49 47 44 42 40 38 36 36 36 35 34 32 31 32 32 31 30 29 27 27 27 27 26 25 24 24 23 23 23 24 25 25 25 24 24 24 25 26 27 29 31 32 34 34 31 26 24 21 15 12 13 14 15
34 34 32 33 36 38 39 38 35 33 32 34 39 42 44 44 46 48 50 53 57 57 53 49 47 47 49 51 51 51 51 49 46 44 42 40 38 37 36 36 36 35 34 32 31 32 31 30 29 28 27 26 26 27 26 25 24 23 22 21 22 23 24 25 24 24 24 24 24 25 26 27 29 30 32 33 32 26 21 19 17 14 14 15 16
35 35 36 37 38 38 37 37 36 35 37 42 48 49 49 49 50 51 53 54 54 51 48 46 46 48 51 51 50 50 48 46 44 42 40 38 37 36 36 37 36 35 33 32 31 31 31 30 29 27 26 26 25 26 26 25 24 24 22 21 21 21 23 24 24 23 24 24 24 25 25 26 27 29 30 31 31 28 21 15 15 15 14 15 16
40 40 40 41 40 39 39 40 41 43 45 48 51 52 51 49 48 48 49 50 49 47 46 45 47 50 51 50 48 48 47 45 43 41 39 38 37 36 36 36 36 34 33 31 30 30 30 29 28 26 26 25 25 26 26 24 24 24 24 22 21 21 22 23 23 23 23 23 23 24 25 26 27 28 29 30 30 29 26 18 11 15 16 15 16
44 44 43 42 42 41 42 43 44 47 49 50 52 52 50 46 44 44 45 46 45 45 47 49 51 51 48 47 47 47 46 44 42 41 39 37 36 36 36 35 34 33 32 31 30 29 29 28 27 26 26 26 25 26 26 25 24 25 25 25 24 23 22 23 23 23 23 22 22 23 24 25 26 27 28 28 28 28 27 23 12 9 14 15 16
45 45 45 45 45 45 46 46 47 48 49 50 51 49 47 45 45 46 46 47 48 50 50 51 49 47 46 48 48 46 44 42 41 39 38 36 35 35 35 34 33 32 31 30 29 29 29 28 27 26 26 26 26 26 26 25 25 25 26 27 26 25 24 23 23 23 22 22 21 22 22 23 25 26 27 28 28 27 27 25 18 7 8 14 16
46 46 47 48 49 50 50 50 50 50 49 48 48 47 46 47 48 49 50 51 51 50 48 47 46 47 49 49 47 44 42 41 39 38 37 35 35 35 34 33 32 31 30 29 28 28 28 28 27 26 27 27 26 25 25 25 24 24 25 26 25 25 24 23 23 22 22 21 21 21 21 22 24 25 26 26 27 26 26 25 22 13 3 9 16
46 47 48 49 51 52 52 52 52 52 51 51 50 49 49 49 49 49 49 48 46 46 47 48 49 49 50 48 45 42 41 40 40 38 36 34 34 34 33 32 31 30 29 28 27 27 27 27 27 27 27 27 26 25 24 24 24 24 24 24 23 22 22 22 22 21 21 21 21 21 21 21 23 24 25 25 25 25 24 24 23 19 10 1 12
46 47 48 50 51 52 52 53 54 54 54 53 51 49 48 48 47 46 45 45 45 48 50 50 50 49 49 47 45 43 42 41 40 38 35 34 33 32 32 30 29 28 27 26 26 25 25 25 26 26 27 27 26 24 23 23 23 23 23 22 22 21 21 21 21 21 20 20 20 20 21 21 22 23 24 24 24 24 23 22 21 21 18 9 2
47 48 49 49 51 52 53 53 53 52 51 50 49 49 48 46 45 44 46 48 50 51 51 50 49 49 49 47 45 44 43 42 39 36 34 33 32 31 30 29 28 27 26 25 24 24 24 24 24 25 26 26 25 23 22 22 22 21 22 21 21 20 20 20 21 21 20 20 20 19 20 20 21 22 22 23 23 22 22 22 20 20 20 17 9
48 48 49 50 51 52 52 51 50 50 49 49 50 49 47 45 45 47 50 52 52 52 51 50 50 49 48 47 46 44 42 40 37 34 32 31 30 30 29 28 27 26 25 24 24 23 23 23 23 24 25 25 24 23 22 21 20 20 20 20 20 20 20 20 20 20 20 20 19 19 18 19 20 21 21 21 22 21 21 20 20 19 19 19 16
49 49 49 50 50 50 50 50 50 50 50 50 49 47 46 47 50 52 53 52 51 50 50 49 48 47 47 46 44 42 40 38 36 33 31 30 29 28 27 27 26 25 25 24 24 23 22 22 22 23 24 24 23 22 21 20 20 19 19 19 19 19 19 19 19 19 20 19 19 18 18 17 18 19 20 20 20 20 20 19 19 18 17 17 17
50 50 50 50 50 49 49 50 50 50 51 50 48 48 50 51 52 51 50 48 47 47 47 46 44 44 44 44 43 42 41 38 35 31 29 28 28 27 26 25 25 25 25 25 24 23 23 22 22 23 24 24 23 22 21 20 20 19 18 18 18 19 19 19 19 19 19 19 19 18 18 17 17 18 19 19 19 19 19 19 18 17 17 16 15
48 49 49 50 50 50 50 50 51 51 50 49 48 50 51 49 45 44 44 44 44 45 44 42 42 42 43 43 42 41 39 36 32 29 28 27 27 27 26 25 25 25 25 25 24 24 23 23 23 23 24 24 23 22 21 20 20 19 18 18 18 18 18 19 19 19 19 19 19 19 19 18 18 18 18 19 19 18 18 18 18 17 16 15 15
47 48 49 50 50 50 50 50 49 48 48 46 46 45 44 41 39 40 42 43 42 42 41 42 42 40 39 39 38 36 34 31 28 27 27 27 26 26 26 26 26 27 26 25 24 24 24 24 24 24 24 24 23 23 22 22 21 20 19 18 18 18 18 18 18 19 19 19 19 20 20 19 19 18 19 19 19 19 18 17 17 17 17 16 15
47 47 48 48 48 48 48 47 46 45 44 43 41 40 39 38 39 40 41 40 39 39 38 38 37 36 34 34 33 32 30 29 27 26 26 26 26 26 26 26 26 27 26 25 25 24 24 25 25 25 25 24 24 23 23 23 22 21 21 20 19 19 19 19 19 19 20 20 20 20 20 20 20 19 19 19 19 19 18 18 17 17 17 16 15
45 45 46 46 46 46 45 43 43 42 40 39 37 37 38 38 38 37 36 35 35 35 34 34 34 33 33 32 31 31 30 29 27 27 26 27 27 27 26 25 25 25 25 25 25 24 25 25 25 25 25 25 25 25 24 24 24 23 23 22 21 21 21 21 20 20 21 21 21 20 21 21 21 20 20 20 19 19 19 18 18 17 17 17 16
44 45 44 44 43 42 41 40 39 38 36 35 35 35 36 36 35 34 34 34 34 34 34 34 34 33 32 31 31 30 30 28 28 28 28 28 28 27 26 25 24 24 25 25 25 25 25 25 25 25 26 26 26 26 26 25 25 25 25 24 23 23 22 22 22 22 22 22 22 21 21 21 22 22 22 21 20 19 19 19 18 18 17 17 17
43 42 41 40 39 37 36 35 35 34 34 34 34 34 34 34 34 34 34 34 34 34 34 34 34 33 32 31 31 30 29 29 28 28 28 28 28 27 26 24 24 24 25 25 25 25 25 24 25 25 26 26 27 27 27 26 26 26 26 25 25 24 24 24 23 23 23 23 23 23 22 22 22 23 23 22 21 20 20 20 19 18 18 17 17
39 37 36 35 34 33 33 33 33 33 33 33 33 33 33 33 33 33 33 33 34 34 33 32 32 32 31 31 31 30 29 29 29 29 28 28 28 27 26 25 25 25 25 25 25 25 25 25 25 26 26 27 27 27 27 27 27 27 27 27 26 26 25 25 25 24 24 25 25 24 24 23 23 23 24 23 23 22 21 21 20 19 18 18 18
33 32 32 31 31 31 31 32 32 32 32 32 32 31 31 31 32 32 32 32 32 31 31 31 31 30 31 31 31 30 30 30 29 29 28 28 28 27 26 25 25 24 24 24 25 25 25 25 25 26 26 26 27 27 27 28 28 27 27 27 26 26 26 26 26 25 25 25 25 25 25 24 24 24 24 24 23 23 23 22 21 20 20 19 18
29 29 30 30 30 30 30 31 31 31 31 31 31 31 31 31 31 31 31 30 30 30 29 29 29 29 30 30 30 30 30 29 28 28 28 28 27 26 25 25 24 24 24 24 25 25 24 24 24 25 26 26 26 26 26 26 26 25 25 25 25 25 25 25 25 25 24 25 25 25 25 25 24 24 24 24 24 23 23 23 23 22 21 20 19
28 29 29 29 29 29 29 30 30 31 31 30 30 29 30 30 31 31 31 30 29 29 29 28 28 28 28 28 28 28 27 26 26 26 26 25 24 24 23 23 23 23 24 25 25 25 24 24 24 25 25 25 25 24 23 22 21 21 21 21 21 21 21 22 22 21 22 22 23 23 24 24 24 23 23 23 23 23 23 23 23 23 22 22 21
Wind_Direction
304 304 303 300 299 299 297 298 300 299 297 296 292 287 285 287 293 296 295 293 292 291 289 287 290 294 298 301 302 302 303 304 305 306 307 309 311 313 312 312 312 312 313 314 316 317 318 318 319 319 320 319 317 315 314 313 312 310 308 306 305 304 303 303 302 301 298 295 293 290 285 278 273 270 268 265 265 265 265 264 263 260 256 250 245
304 305 305 302 296 294 292 293 296 296 295 295 291 286 284 285 292 296 295 292 290 288 288 289 291 294 297 301 303 304 305 306 307 308 309 310 311 311 311 311 312 314 316 317 318 319 319 318 318 319 320 319 317 316 315 315 313 311 308 307 306 305 304 304 304 304 301 296 292 288 282 277 274 273 271 268 266 265 264 262 261 260 258 255 250
304 304 305 301 294 292 291 291 292 292 293 293 289 286 284 285 291 294 293 291 288 287 290 293 293 295 299 302 304 306 306 306 307 308 308 308 309 310 310 310 311 314 317 319 318 317 317 317 316 317 318 317 316 316 317 316 314 311 308 307 306 306 307 307 306 306 304 297 289 283 278 277 277 275 272 271 268 266 265 263 261 259 258 257 254
303 303 302 298 293 292 291 290 290 290 291 290 287 286 283 284 289 292 292 292 289 289 293 296 296 298 301 303 304 305 304 304 306 307 307 307 308 309 310 310 311 313 315 316 316 315 314 315 316 316 316 317 317 317 317 315 313 311 308 306 305 306 308 308 307 306 305 300 291 282 276 275 277 274 272 271 271 269 267 265 263 262 260 258 256
301 300 297 294 292 292 291 290 290 290 290 288 285 284 281 281 287 290 290 292 292 290 293 298 300 301 303 303 304 303 303 304 307 307 308 308 308 309 310 311 312 312 313 313 314 314 314 315 316 316 317 316 316 315 314 312 310 308 306 303 304 306 307 308 307 306 305 301 294 286 279 277 275 272 271 271 271 271 270 269 267 265 262 260 258
297 295 293 291 291 292 290 290 291 291 289 285 283 283 280 279 284 288 290 292 294 291 292 300 305 304 304 302 301 302 304 307 308 307 308 308 308 309 311 312 312 312 312 313 313 314 315 316 317 316 316 315 314 313 311 310 308 307 304 303 303 306 307 307 306 305 304 301 295 289 285 281 278 274 272 272 273 273 272 270 268 267 266 264 261
296 294 293 293 293 292 290 289 290 288 285 282 281 282 281 278 280 286 290 294 296 293 292 299 306 305 303 301 301 304 307 307 306 306 307 308 308 309 310 311 311 312 313 313 313 315 316 316 316 316 315 313 312 311 310 309 308 306 304 303 303 305 306 306 305 305 303 300 296 291 287 284 281 278 275 274 274 274 274 271 267 266 266 266 265
299 297 296 296 294 292 290 289 288 286 283 281 279 281 282 279 279 283 287 293 298 295 291 295 303 305 302 300 301 304 305 305 305 305 306 307 308 308 309 311 312 313 314 314 315 316 317 316 315 314 313 312 311 310 310 309 307 306 304 302 303 304 305 305 305 304 301 299 297 294 291 287 284 281 279 277 276 275 276 275 270 266 265 265 266
302 301 299 296 294 292 288 285 285 285 285 282 279 279 279 277 276 279 285 292 297 295 289 290 297 302 302 300 301 302 303 304 304 304 305 306 306 307 310 312 313 315 317 318 317 317 316 315 314 313 312 311 310 310 309 308 307 305 303 302 303 305 305 305 304 303 301 300 298 296 293 290 287 284 283 282 280 278 278 277 275 270 266 265 265
305 303 299 296 293 291 285 281 283 286 287 284 280 277 275 273 274 279 286 291 293 292 287 286 293 300 301 299 299 300 302 304 304 307 309 308 308 310 313 314 316 318 319 318 317 316 315 314 313 312 311 310 309 309 309 308 306 304 303 303 304 305 304 304 303 302 300 299 298 296 294 292 290 288 287 286 285 283 282 281 278 273 268 266 264
307 303 299 297 294 291 285 282 283 284 281 277 276 275 271 270 274 280 286 289 290 289 287 286 291 298 300 298 296 297 303 305 306 309 312 311 311 313 314 315 316 318 318 318 317 316 314 313 312 311 310 309 308 308 308 308 306 305 305 305 305 305 304 304 303 302 301 299 298 296 294 294 294 293 292 290 289 288 287 284 280 274 268 265 264
307 303 301 300 296 291 285 280 278 278 273 270 271 273 271 269 272 278 285 289 289 289 288 288 292 297 299 296 292 294 304 309 308 308 310 311 313 314 315 315 316 318 318 318 318 316 314 312 311 309 308 308 308 308 308 307 306 306 306 306 305 304 304 303 303 303 302 300 298 297 297 297 297 297 296 294 292 291 288 283 278 274 268 265 263
305 302 301 299 295 290 282 274 275 278 275 271 271 272 270 269 270 274 280 285 287 287 288 288 292 296 297 294 289 291 302 309 308 308 310 311 313 314 315 316 317 318 319 318 318 316 313 311 309 308 308 308 308 308 308 307 306 306 306 306 305 303 302 301 301 303 303 300 299 299 300 300 300 300 300 298 296 294 288 279 273 271 268 265 264
301 298 298 297 296 294 286 278 279 281 278 274 270 268 270 273 270 267 271 281 286 286 286 287 290 294 295 293 290 292 300 306 307 308 310 312 313 314 316 317 317 318 318 318 317 315 312 311 309 308 308 308 308 308 307 306 306 306 306 306 304 301 300 300 300 302 302 300 300 301 301 302 302 303 303 301 300 298 289 274 267 265 265 266 265
297 297 297 297 298 298 292 285 281 278 277 274 267 266 272 276 270 261 265 279 286 285 284 285 288 293 295 296 296 297 301 304 306 307 308 310 312 314 315 316 317 318 318 317 315 313 312 311 310 308 308 307 307 307 307 306 306 306 307 305 302 300 299 299 299 301 301 301 303 304 304 306 306 306 306 303 301 301 291 274 266 262 261 263 263
297 297 297 298 299 296 291 286 281 278 279 273 267 267 272 271 264 260 266 279 286 285 283 283 286 291 296 300 302 302 302 303 305 306 307 309 312 314 315 316 317 318 317 315 313 312 311 311 311 310 309 308 308 307 306 306 307 308 307 304 301 300 299 299 299 300 301 303 305 307 308 309 309 308 307 305 304 304 293 277 271 264 259 260 259
300 298 298 298 295 290 289 287 282 279 279 275 270 270 271 269 266 266 270 278 284 283 280 281 286 292 298 303 305 304 303 305 308 308 308 310 312 314 314 315 317 317 315 313 312 311 311 312 313 312 311 309 308 306 306 307 308 308 306 302 301 300 298 298 298 300 302 305 308 310 310 311 311 311 309 308 308 307 298 283 274 266 258 257 254
298 296 295 296 294 291 291 291 286 280 273 269 272 274 275 277 275 271 273 279 283 281 278 281 287 292 298 303 304 302 304 308 309 309 309 311 312 313 314 315 316 316 314 312 311 312 313 314 315 314 312 310 308 307 307 308 308 307 304 301 301 300 298 298 300 302 306 309 311 312 313 315 315 314 312 309 308 308 302 290 281 273 261 255 250
294 294 294 296 297 293 289 290 291 282 266 262 273 281 285 287 280 271 274 283 283 279 279 284 289 293 298 303 304 305 307 308 309 309 310 312 312 313 314 315 315 315 313 312 312 314 315 316 315 314 312 310 308 307 307 308 307 305 303 302 301 300 299 300 302 305 309 312 314 314 316 318 318 315 312 308 307 308 303 294 289 284 270 256 248
295 295 295 297 297 291 286 288 289 279 264 266 278 283 287 289 278 269 280 290 286 282 283 287 289 292 296 300 303 308 309 308 308 310 311 311 312 313 314 315 314 313 312 313 314 316 316 316 315 313 310 309 307 307 307 307 307 305 303 302 302 300 301 301 303 308 312 314 315 315 317 320 319 316 311 307 306 306 301 294 292 290 280 260 245
295 295 295 295 292 289 288 288 284 274 269 276 283 283 284 282 274 274 286 291 287 284 285 287 289 293 297 299 302 307 308 308 309 310 310 311 312 313 314 315 314 313 313 314 315 315 315 314 313 311 309 308 307 307 308 308 306 305 304 303 302 301 301 302 306 311 315 315 315 315 318 322 322 319 314 308 306 304 298 293 292 291 285 267 245
292 294 296 294 289 288 287 282 275 273 275 280 282 281 280 277 276 281 287 289 287 284 284 286 291 296 300 301 303 306 306 307 309 309 310 311 312 313 315 316 315 315 314 314 314 314 314 313 311 309 308 307 307 307 309 308 306 304 304 303 302 302 303 305 309 313 315 314 314 316 319 324 326 324 317 310 306 301 295 292 294 292 283 266 241
288 294 298 293 288 288 285 276 271 272 279 284 285 283 277 272 275 281 283 281 281 283 286 291 294 298 300 302 304 305 305 307 307 308 309 311 312 315 316 316 316 315 314 312 312 312 313 312 309 308 307 306 306 308 309 308 305 303 302 302 302 303 304 307 311 314 314 313 314 317 321 327 329 327 320 311 306 300 292 291 292 285 270 253 233
289 294 294 289 288 287 282 278 278 281 286 289 287 281 272 267 270 273 270 267 270 278 288 295 298 300 302 303 303 304 304 306 307 308 310 312 314 315 316 315 314 313 311 310 310 312 312 310 308 307 307 306 306 308 308 306 303 300 300 301 302 304 305 308 311 313 313 313 315 319 324 328 331 331 326 315 310 304 294 293 292 276 256 245 230
288 290 287 286 289 287 283 283 286 288 291 289 279 269 267 272 276 275 271 270 273 280 290 298 301 303 303 303 303 304 305 307 309 310 312 313 313 314 314 313 312 310 308 308 310 311 311 308 307 307 307 306 305 306 306 304 302 300 300 302 303 304 306 309 311 311 311 313 316 320 326 330 333 335 333 322 315 311 299 291 293 276 256 247 235
285 286 286 288 288 285 283 283 285 286 287 285 276 267 271 279 280 278 278 277 278 287 297 302 303 302 302 303 304 306 307 309 310 311 311 311 312 312 312 312 310 307 306 307 309 310 308 306 307 308 307 305 305 304 304 303 301 300 300 301 303 304 306 308 310 310 310 313 316 320 326 331 334 337 340 332 320 315 305 291 287 274 255 250 245
283 286 289 291 290 288 287 287 285 283 282 282 277 271 274 280 279 279 281 279 282 294 303 304 303 304 305 307 307 308 309 310 310 309 309 310 310 311 311 310 308 306 305 306 307 307 305 304 307 308 307 305 304 303 302 300 299 298 299 301 302 304 307 308 309 309 309 311 315 319 325 331 335 339 344 342 328 316 308 299 291 272 252 251 251
286 289 291 292 293 296 297 295 291 285 283 281 277 274 278 282 280 279 278 278 287 299 304 306 308 310 310 309 309 309 309 308 307 307 308 308 309 309 310 309 307 304 304 305 305 304 302 304 306 307 307 305 304 303 301 297 296 297 298 300 302 304 306 308 308 308 307 309 313 318 324 331 336 340 345 348 340 322 309 302 293 274 262 253 247
286 289 289 291 294 297 299 298 294 290 286 282 278 279 283 287 286 284 280 281 290 297 300 303 307 309 308 308 307 306 305 304 305 306 307 307 308 308 308 306 305 304 303 303 303 302 301 303 306 307 306 305 305 305 301 295 293 294 296 300 301 303 306 307 307 307 306 308 312 318 324 331 336 341 345 348 347 335 315 299 286 272 268 257 241
285 285 286 290 293 294 296 297 293 286 281 281 284 287 288 288 288 288 285 286 290 294 297 300 304 306 306 305 303 302 302 303 305 307 307 307 308 307 305 303 303 303 302 301 301 301 301 303 305 306 306 306 307 307 303 295 289 290 294 297 300 302 305 306 306 305 305 307 311 316 322 329 334 340 344 346 348 347 329 302 284 270 262 253 241
286 285 284 287 290 292 293 295 290 283 279 282 286 288 288 288 288 288 288 289 291 293 296 300 303 304 303 301 299 299 301 304 307 307 306 306 306 304 302 300 300 301 300 299 299 299 300 302 304 305 305 305 307 308 306 298 288 287 291 295 298 302 304 305 306 305 305 306 309 314 321 327 332 337 342 342 345 351 353 328 290 272 260 245 236
287 286 287 289 291 292 292 292 290 287 285 285 287 289 290 291 291 290 289 289 290 293 296 299 300 300 299 298 299 302 304 307 308 307 305 304 303 301 298 297 297 298 297 297 297 298 298 300 302 304 304 304 306 308 307 301 291 286 287 291 296 300 302 304 306 306 305 306 308 312 319 325 330 334 338 341 341 348 360 360 314 274 262 244 235
287 289 290 291 292 292 292 290 289 288 289 290 292 294 296 296 294 293 292 292 293 295 297 297 298 297 297 299 302 305 306 308 307 305 302 301 299 298 296 295 296 295 295 295 295 296 296 297 300 302 302 303 304 305 305 302 295 288 285 287 290 294 298 302 304 306 306 306 307 311 316 321 326 329 333 338 341 344 353 5 357 288 262 247 236
289 290 291 292 292 291 291 290 289 290 291 293 295 296 296 296 295 295 296 296 296 297 298 298 297 297 299 302 304 305 306 305 303 302 300 299 297 296 295 295 295 294 293 293 294 294 294 295 297 300 301 301 302 303 302 301 297 292 288 286 285 287 290 295 300 303 305 306 307 309 312 316 321 325 329 335 340 342 346 358 8 353 265 247 234
289 290 290 290 290 290 290 291 292 293 294 294 293 293 294 294 295 296 296 296 296 297 298 299 298 298 300 302 303 304 303 302 301 302 301 298 296 295 294 294 293 292 291 292 292 292 293 294 295 298 299 300 301 301 300 299 297 294 292 289 286 284 284 288 293 297 301 304 305 307 310 312 316 321 326 331 336 339 341 349 1 12 331 239 232
288 288 287 287 288 289 291 292 294 295 295 294 294 293 294 295 296 296 295 295 295 297 299 300 299 298 300 301 302 303 302 300 300 302 301 298 295 293 293 292 291 290 289 290 290 291 292 293 295 298 299 300 301 300 299 297 294 293 293 292 291 287 283 284 288 292 295 299 301 303 307 310 313 317 323 327 331 335 338 342 352 6 20 222 225
286 286 286 287 288 289 291 293 294 295 296 297 297 297 297 298 298 298 297 297 298 300 301 300 299 299 300 301 301 301 300 299 299 301 299 295 292 292 291 289 288 288 288 289 290 292 292 293 296 298 298 299 300 300 297 295 293 293 293 293 294 292 287 285 287 290 292 296 298 301 304 307 310 315 319 323 326 331 334 338 345 356 9 24 199
285 285 286 287 289 290 291 293 294 296 298 300 300 300 300 300 300 299 300 300 300 300 300 299 299 299 299 299 299 300 299 299 298 298 296 293 291 290 289 287 286 286 288 289 290 292 292 293 295 297 297 298 299 298 296 294 294 293 292 293 294 295 292 289 288 290 292 295 298 300 302 305 309 312 315 318 322 325 330 335 341 350 0 11 24
285 286 287 288 290 291 292 292 294 296 298 300 300 300 300 300 298 298 298 298 298 298 298 298 298 298 298 298 299 299 298 297 297 296 294 291 289 289 287 285 285 285 287 289 290 291 291 291 292 293 294 295 295 295 293 293 293 292 291 291 291 293 294 293 291 291 293 295 298 300 303 304 307 309 311 313 317 321 325 329 336 343 353 3 11
286 287 288 290 291 292 292 292 294 295 297 298 298 298 298 297 296 296 296 295 295 295 296 296 297 297 297 297 298 297 297 297 297 294 291 288 287 286 285 284 284 285 286 288 289 289 289 290 290 290 291 291 291 292 291 290 291 291 290 289 289 289 290 292 292 292 293 295 297 300 302 303 304 306 308 309 312 316 319 323 329 336 344 354 5
285 287 288 290 290 291 292 293 294 295 296 296 296 295 295 296 296 296 296 295 295 296 296 296 297 297 297 297 296 296 296 296 295 291 287 284 284 283 282 282 283 284 285 287 288 288 289 290 290 289 288 288 289 290 290 289 289 289 289 287 286 286 287 289 291 292 293 295 296 298 301 302 303 303 305 306 307 310 313 316 321 327 334 341 351
285 287 289 290 291 292 293 293 293 294 294 294 294 294 294 294 293 291 291 293 295 296 296 297 298 298 297 296 296 295 295 294 290 286 283 283 282 281 281 281 281 282 283 284 285 287 288 290 290 288 287 287 288 289 289 288 286 286 286 286 285 286 287 288 290 292 293 294 295 297 298 300 301 301 301 302 302 304 306 309 313 317 323 330 336
286 289 290 291 292 292 292 292 293 292 293 293 294 293 293 292 290 289 289 290 292 292 293 296 299 300 298 297 297 295 293 289 286 282 281 280 279 278 279 280 280 281 282 282 284 286 288 288 288 288 287 287 287 287 287 287 285 284 283 283 283 284 286 287 289 292 292 292 293 294 295 297 298 298 298 298 298 299 300 302 305 308 313 318 323
287 289 291 291 292 293 293 293 293 292 293 293 291 289 288 289 292 293 293 293 293 293 294 297 299 299 299 298 297 294 290 288 285 281 279 278 277 276 275 275 276 277 279 281 283 284 285 286 286 287 287 286 286 285 285 284 284 283 282 282 282 283 284 285 286 288 289 291 291 291 292 293 294 294 294 294 294 295 296 296 298 301 304 308 312
289 290 292 293 294 294 294 293 292 291 291 290 288 287 288 291 293 294 295 296 297 297 297 296 296 296 296 295 292 290 289 287 285 282 279 277 275 274 273 272 273 274 277 280 281 282 283 283 284 284 285 285 284 283 282 282 282 282 282 281 281 281 281 282 283 283 285 287 288 289 289 290 290 291 290 290 290 290 291 291 292 294 296 300 302
289 290 292 293 293 292 291 290 289 289 289 290 290 291 291 292 292 293 294 294 294 294 293 293 292 292 291 290 288 287 287 286 284 281 279 277 276 275 274 274 275 276 278 280 281 281 281 281 281 282 283 282 282 281 281 281 281 281 281 280 280 279 279 279 279 280 281 282 284 285 286 287 287 288 287 286 287 286 286 286 287 287 288 291 293
287 289 291 291 290 288 288 288 288 289 291 292 292 292 292 292 292 292 292 292 292 291 291 290 290 290 290 289 289 288 287 286 283 281 279 278 277 276 277 277 278 278 279 279 280 280 280 281 281 281 281 281 281 280 280 280 280 280 280 279 279 278 278 277 277 278 279 280 281 282 283 283 284 285 285 284 284 284 283 282 282 281 281 283 284
287 288 288 287 286 286 287 288 290 291 292 293 293 293 293 293 293 292 292 291 291 290 290 291 291 292 291 291 290 289 288 286 284 282 281 280 279 279 279 279 278 277 277 278 278 279 280 280 281 281 280 280 280 280 280 280 280 280 280 279 279 278 278 277 276 276 277 278 279 280 280 281 281 281 282 282 282 282 281 280 278 277 276 276 277
285 285 285 285 286 288 289 290 291 292 292 293 293 293 293 293 292 291 290 290 290 291 292 293 293 293 291 290 290 288 287 285 284 283 282 280 280 279 279 278 277 277 277 278 278 279 280 281 281 282 282 281 281 281 280 280 280 280 279 279 279 278 277 277 276 276 275 275 276 277 278 278 278 278 278 278 279 279 279 278 276 275 274 272 272
283 284 286 287 288 289 290 291 292 291 292 293 294 294 294 293 292 291 291 291 292 293 294 294 294 293 292 291 290 289 288 287 286 283 281 280 280 279 278 278 278 278 279 279 280 281 282 283 283 283 283 282 282 281 281 280 280 280 279 279 278 278 277 277 276 275 274 274 273 274 275 275 275 275 275 275 275 276 276 276 275 274 273 272 271
283 285 287 288 289 290 290 290 291 292 294 296 297 297 296 295 294 294 294 294 294 294 294 294 294 293 293 292 292 291 291 290 287 284 282 281 280 279 279 279 280 280 280 281 282 283 285 285 285 284 284 284 283 282 281 281 281 281 280 279 279 278 277 275 274 273 271 270 269 269 269 271 271 271 271 271 272 273 273 274 274 274 273 272 272